Weather History for KUCP - December, 2013

Change the Weather History Date:

Thursday, December 5, 2013

  Actual Average Record
Temperature  
Mean Temperature 47 °F -  
Max Temperature 60 °F 41 °F 68 °F (1941)
Min Temperature 34 °F 27 °F 7 °F (1976)
Degree Days  
Heating Degree Days 18    
Moisture  
Dew Point 47 °F    
Average Humidity 85    
Maximum Humidity 100    
Minimum Humidity 72    
Precipitation  
Precipitation 0.13 in - - ()
Sea Level Pressure  
Sea Level Pressure 29.93 in    
Wind  
Wind Speed 8 mph (WSW)    
Max Wind Speed 16 mph    
Max Gust Speed 20 mph    
Visibility 8 miles    
Events Rain    
Averages and records for this station are not official NWS values.
T = Trace of Precipitation, MM = Missing Value Source: NWS Daily Summary

Daily Weather History Graph

Daily Weather History Graph

Search for Another Location

Airport or City:

Trip Planner

Search our weather history database for the weather conditions in past years. The results will help you decide how hot, cold, wet, or windy it might be!

Date:

Astronomy

Dec. 05, 2013 Rise Set
Actual Time 7:31 AM EST 4:53 PM EST
Civil Twilight 7:00 AM EST 5:24 PM EST
Nautical Twilight 6:26 AM EST 5:58 PM EST
Astronomical Twilight 5:53 AM EST 6:31 PM EST
Moon 9:49 AM EST (12/5) 8:12 PM EST (12/5)
Length of Visible Light 10h 23m
Length of Day
9h 21m
Waxing Crescent, 10% of the Moon is Illuminated
Dec 5
Waxing Crescent
Dec 9
First Quarter
Dec 17
Full
Dec 25
Last Quarter
Jan 1
New

Hourly Weather History & Observations

Time (EST) Temp. Windchill Dew Point Humidity Pressure Visibility Wind Dir Wind Speed Gust Speed Precip Events Conditions
12:56 AM 53.6 °F - 44.6 °F 72% 29.85 in 10.0 mi SSE 8.1 mph - N/A   Scattered Clouds
1:56 AM 54.0 °F - 45.9 °F 74% 29.88 in 10.0 mi SSE 8.1 mph - N/A   Clear
2:56 AM 54.9 °F - 45.9 °F 72% 29.89 in 10.0 mi SSE 8.1 mph - N/A   Partly Cloudy
3:56 AM 54.9 °F - 46.9 °F 75% 29.87 in 10.0 mi Variable 5.8 mph - N/A   Partly Cloudy
4:56 AM 56.8 °F - 50.0 °F 78% 29.88 in 10.0 mi South 6.9 mph - N/A   Mostly Cloudy
5:56 AM 57.9 °F - 50.9 °F 77% 29.88 in 10.0 mi South 9.2 mph - N/A   Mostly Cloudy
6:56 AM 59.0 °F - 51.8 °F 77% 29.84 in 10.0 mi Variable 6.9 mph - N/A   Overcast
7:56 AM 59.0 °F - 52.0 °F 78% 29.89 in 10.0 mi South 5.8 mph - N/A   Clear
8:56 AM 59.9 °F - 52.9 °F 78% 29.89 in 10.0 mi Variable 6.9 mph - N/A   Clear
9:56 AM 60.8 °F - 53.6 °F 77% 29.86 in 10.0 mi South 8.1 mph - N/A   Scattered Clouds
10:56 AM 57.9 °F - 55.9 °F 93% 29.91 in 2.5 mi South 5.8 mph - 0.04 in Rain Light Rain
11:10 AM 57.2 °F - 57.2 °F 100% 29.85 in 3.0 mi Variable 6.9 mph - 0.02 in Rain Light Rain
11:32 AM 57.2 °F - 57.2 °F 100% 29.86 in 4.0 mi South 8.1 mph - 0.02 in Rain Light Rain
11:56 AM 57.9 °F - 56.8 °F 96% 29.90 in 5.0 mi SSW 8.1 mph - 0.02 in Rain Light Rain
12:31 PM 57.2 °F - 57.2 °F 100% 29.85 in 6.0 mi Variable 6.9 mph - 0.00 in   Mostly Cloudy
12:56 PM 57.2 °F - 57.2 °F 100% 29.86 in 7.0 mi SW 5.8 mph - N/A   Overcast
1:56 PM 59.9 °F - 56.8 °F 90% 29.90 in 10.0 mi SSW 5.8 mph - N/A   Mostly Cloudy
2:24 PM 60.8 °F - 57.2 °F 88% 29.84 in 10.0 mi South 6.9 mph - N/A   Scattered Clouds
2:56 PM 59.9 °F - 56.8 °F 90% 29.89 in 10.0 mi Variable 6.9 mph - N/A   Scattered Clouds
3:42 PM 59.0 °F - 55.4 °F 88% 29.87 in 9.0 mi West 13.8 mph 17.3 mph N/A   Mostly Cloudy
3:56 PM 57.2 °F - 53.6 °F 88% 29.88 in 9.0 mi West 16.1 mph 19.6 mph N/A   Overcast
4:56 PM 48.9 °F - 41.9 °F 77% 29.97 in 10.0 mi NNW 9.2 mph - N/A   Overcast
5:22 PM 48.2 °F - 41.0 °F 76% 29.94 in 10.0 mi NNW 8.1 mph - N/A   Overcast
5:49 PM 46.4 °F 41.5 °F 39.2 °F 76% 29.96 in 10.0 mi NW 10.4 mph - N/A   Overcast
5:56 PM 46.9 °F - 39.9 °F 77% 30.02 in 10.0 mi NW 9.2 mph - N/A   Overcast
6:56 PM 42.8 °F 38.6 °F 37.4 °F 81% 30.01 in 10.0 mi NNW 6.9 mph - N/A   Mostly Cloudy
7:56 PM 39.9 °F 34.5 °F 36.0 °F 86% 30.08 in 10.0 mi NW 8.1 mph - 0.01 in   Overcast
8:56 PM 37.9 °F 32.7 °F 34.9 °F 89% 30.07 in 10.0 mi NW 6.9 mph - 0.02 in   Mostly Cloudy
9:56 PM 37.4 °F 30.8 °F 33.8 °F 87% 30.04 in 5.0 mi NW 9.2 mph - N/A Rain Light Rain
10:26 PM 35.6 °F 29.9 °F 33.8 °F 93% 30.04 in 9.0 mi NNW 6.9 mph - 0.00 in Rain Light Rain
10:56 PM 34.9 °F 26.6 °F 32.0 °F 89% 30.10 in 10.0 mi NW 11.5 mph - 0.00 in   Mostly Cloudy
11:36 PM 35.6 °F 30.7 °F 32.0 °F 87% 30.07 in 3.0 mi NNW 5.8 mph - 0.04 in Rain Light Rain
11:56 PM 34.9 °F 28.3 °F 32.0 °F 89% 30.17 in 5.0 mi West 8.1 mph - 0.04 in Rain Light Rain